Location: Unspecified
(29.9680°N, 0.0000°E)
Time: 04:56:36
(UTC+00:00)

Explorer 7 - Pass Details

Date: 30 June 2019
Orbit: 485 x 680 km, 50.3° (Epoch: 16 August)

Event Time Altitude Azimuth Distance (km) Brightness Sun altitude
Rises 12:43:38 0° 313° (NW) 2,929 10.6 78.8°
Reaches altitude 10° 12:45:55 10° 312° (NW) 2,044 9.9 78.4°
Maximum altitude 12:50:39 79° 226° (SW) 679 10.9 77.5°
Drops below altitude 10° 12:55:32 10° 140° (SE) 2,102 9.9 76.6°
Sets 12:57:55 0° 139° (SE) 3,019 10.6 76.1°
